QPF
0.04 0.03 0.02 0.01 0.02 0.03 0.03 0.03 0.01 0.01 0.01 0.01 0.01 0.01 0.01 0.01 0.01 0.01 0.02 0.03 0.06 0.08 0.11 0.13 0.14 0.10 0.08 0.08 0.08 0.08 0.08 0.08 0.07 0.05 0.04 0.04 0.04 0.05 0.06 0.05 0.05 0.06 0.06
0.04 0.02 0.01 0.02 0.02 0.03 0.03 0.03 0.02 0.02 0.01 0.01 0.01 0.01 0.01 0.00 0.01 0.01 0.02 0.03 0.04 0.07 0.11 0.13 0.15 0.13 0.10 0.10 0.09 0.09 0.08 0.08 0.07 0.07 0.06 0.05 0.05 0.05 0.05 0.05 0.04 0.05 0.05
0.03 0.02 0.02 0.03 0.04 0.05 0.05 0.04 0.03 0.02 0.01 0.01 0.01 0.01 0.01 0.01 0.01 0.01 0.02 0.02 0.03 0.04 0.07 0.10 0.12 0.12 0.09 0.08 0.08 0.08 0.07 0.06 0.05 0.05 0.04 0.04 0.05 0.05 0.05 0.05 0.04 0.04 0.04
0.02 0.01 0.01 0.01 0.02 0.04 0.05 0.04 0.02 0.01 0.01 0.01 0.01 0.01 0.01 0.01 0.01 0.01 0.01 0.02 0.02 0.02 0.04 0.07 0.11 0.14 0.10 0.06 0.07 0.09 0.08 0.06 0.05 0.05 0.05 0.04 0.04 0.03 0.05 0.07 0.06 0.05 0.04
0.03 0.01 0.00 0.01 0.01 0.01 0.02 0.02 0.01 0.01 0.01 0.01 0.02 0.02 0.01 0.01 0.01 0.00 0.01 0.01 0.02 0.02 0.03 0.04 0.07 0.12 0.15 0.09 0.07 0.08 0.08 0.06 0.05 0.04 0.04 0.04 0.04 0.04 0.06 0.07 0.07 0.07 0.06
0.03 0.01 0.01 0.01 0.01 0.01 0.01 0.02 0.02 0.01 0.01 0.01 0.01 0.01 0.01 0.01 0.01 0.01 0.01 0.01 0.02 0.02 0.02 0.03 0.03 0.04 0.07 0.08 0.05 0.05 0.06 0.06 0.05 0.04 0.03 0.03 0.04 0.05 0.05 0.06 0.07 0.08 0.07
0.03 0.01 0.01 0.01 0.01 0.01 0.01 0.02 0.02 0.02 0.02 0.02 0.01 0.01 0.02 0.02 0.01 0.01 0.01 0.01 0.01 0.01 0.02 0.02 0.02 0.04 0.03 0.05 0.05 0.03 0.04 0.05 0.04 0.03 0.03 0.04 0.04 0.05 0.05 0.05 0.06 0.08 0.09
0.02 0.01 0.01 0.01 0.02 0.02 0.02 0.03 0.02 0.02 0.02 0.02 0.02 0.03 0.03 0.02 0.01 0.01 0.00 0.01 0.02 0.01 0.01 0.02 0.02 0.03 0.04 0.04 0.05 0.04 0.03 0.04 0.04 0.03 0.03 0.03 0.03 0.03 0.04 0.04 0.04 0.05 0.06
0.01 0.01 0.01 0.01 0.03 0.03 0.03 0.03 0.02 0.02 0.01 0.02 0.02 0.02 0.02 0.02 0.01 0.01 0.01 0.01 0.02 0.01 0.01 0.01 0.02 0.02 0.03 0.06 0.06 0.05 0.04 0.05 0.04 0.03 0.02 0.01 0.01 0.01 0.02 0.03 0.03 0.04 0.05
0.02 0.01 0.01 0.01 0.02 0.04 0.05 0.04 0.03 0.02 0.01 0.01 0.01 0.01 0.02 0.02 0.01 0.01 0.01 0.01 0.02 0.02 0.02 0.02 0.03 0.03 0.02 0.03 0.06 0.06 0.05 0.06 0.05 0.04 0.03 0.02 0.02 0.01 0.01 0.02 0.04 0.06 0.07
0.01 0.01 0.02 0.02 0.02 0.03 0.04 0.04 0.02 0.01 0.01 0.01 0.01 0.02 0.02 0.02 0.02 0.02 0.02 0.02 0.02 0.02 0.03 0.03 0.03 0.03 0.02 0.01 0.03 0.04 0.04 0.04 0.04 0.04 0.03 0.04 0.03 0.03 0.02 0.02 0.02 0.04 0.05
0.01 0.01 0.02 0.02 0.03 0.02 0.02 0.02 0.02 0.01 0.02 0.02 0.02 0.02 0.02 0.02 0.02 0.02 0.02 0.02 0.02 0.02 0.03 0.03 0.03 0.02 0.02 0.02 0.02 0.02 0.02 0.03 0.03 0.03 0.04 0.04 0.03 0.03 0.03 0.02 0.03 0.03 0.03
0.01 0.02 0.02 0.03 0.03 0.03 0.03 0.02 0.01 0.01 0.02 0.01 0.01 0.02 0.02 0.03 0.03 0.03 0.02 0.02 0.02 0.02 0.02 0.01 0.01 0.03 0.04 0.03 0.02 0.02 0.02 0.02 0.03 0.04 0.04 0.03 0.03 0.02 0.02 0.03 0.03 0.03 0.03
0.01 0.02 0.02 0.02 0.02 0.02 0.02 0.02 0.01 0.01 0.02 0.01 0.01 0.02 0.02 0.02 0.02 0.02 0.01 0.01 0.01 0.01 0.01 0.01 0.01 0.02 0.03 0.04 0.03 0.02 0.02 0.03 0.04 0.05 0.05 0.04 0.03 0.03 0.03 0.03 0.04 0.04 0.04
0.02 0.02 0.01 0.01 0.02 0.02 0.01 0.01 0.00 0.01 0.02 0.01 0.01 0.01 0.01 0.01 0.01 0.00 0.00 0.00 0.00 0.00 0.00 0.01 0.02 0.02 0.03 0.04 0.03 0.03 0.03 0.04 0.05 0.04 0.04 0.04 0.04 0.04 0.04 0.03 0.04 0.05 0.06
0.01 0.01 0.01 0.01 0.01 0.01 0.01 0.01 0.01 0.01 0.01 0.01 0.01 0.01 0.01 0.00 0.00 0.00 0.00 0.00 0.00 0.00 0.01 0.01 0.02 0.02 0.02 0.03 0.03 0.03 0.04 0.04 0.04 0.03 0.03 0.04 0.04 0.04 0.05 0.05 0.05 0.05 0.06
0.01 0.01 0.01 0.01 0.01 0.01 0.01 0.01 0.01 0.01 0.01 0.01 0.01 0.01 0.00 0.00 0.00 0.00 0.00 0.00 0.00 0.00 0.01 0.02 0.02 0.03 0.03 0.03 0.03 0.03 0.03 0.03 0.03 0.03 0.04 0.04 0.04 0.04 0.05 0.05 0.05 0.06 0.06
0.01 0.01 0.02 0.02 0.01 0.01 0.01 0.01 0.01 0.01 0.01 0.01 0.01 0.00 0.00 0.00 0.00 0.00 0.00 0.00 0.01 0.01 0.01 0.02 0.02 0.02 0.03 0.03 0.03 0.03 0.03 0.04 0.04 0.05 0.05 0.05 0.04 0.04 0.04 0.05 0.05 0.06 0.07
0.02 0.02 0.02 0.02 0.01 0.01 0.01 0.01 0.01 0.01 0.01 0.01 0.01 0.01 0.01 0.01 0.01 0.01 0.00 0.01 0.01 0.01 0.01 0.01 0.02 0.02 0.02 0.02 0.02 0.03 0.03 0.04 0.05 0.05 0.06 0.05 0.04 0.04 0.05 0.05 0.06 0.05 0.05
0.02 0.01 0.01 0.02 0.01 0.01 0.00 0.00 0.01 0.01 0.01 0.01 0.01 0.01 0.02 0.02 0.02 0.01 0.02 0.02 0.02 0.01 0.01 0.02 0.03 0.03 0.02 0.02 0.02 0.02 0.03 0.04 0.05 0.05 0.04 0.04 0.04 0.04 0.05 0.06 0.05 0.05 0.04
0.01 0.01 0.01 0.01 0.01 0.00 0.00 0.00 0.01 0.01 0.01 0.01 0.02 0.03 0.04 0.05 0.05 0.04 0.04 0.03 0.02 0.01 0.01 0.03 0.03 0.02 0.02 0.02 0.02 0.02 0.02 0.02 0.03 0.04 0.03 0.02 0.02 0.03 0.04 0.04 0.04 0.04 0.05
0.01 0.01 0.01 0.01 0.01 0.00 0.00 0.01 0.01 0.01 0.01 0.01 0.01 0.01 0.02 0.02 0.02 0.02 0.02 0.02 0.01 0.01 0.02 0.02 0.02 0.01 0.01 0.01 0.02 0.02 0.01 0.01 0.02 0.02 0.02 0.02 0.01 0.02 0.02 0.03 0.03 0.04 0.04
0.01 0.01 0.01 0.01 0.00 0.00 0.00 0.01 0.02 0.01 0.02 0.01 0.01 0.01 0.01 0.01 0.01 0.01 0.01 0.01 0.01 0.02 0.02 0.01 0.02 0.02 0.02 0.02 0.02 0.01 0.01 0.01 0.01 0.01 0.01 0.01 0.02 0.02 0.02 0.02 0.02 0.02 0.03
0.01 0.01 0.01 0.00 0.01 0.00 0.00 0.01 0.01 0.01 0.02 0.02 0.01 0.01 0.01 0.01 0.01 0.00 0.01 0.01 0.01 0.01 0.02 0.02 0.02 0.01 0.02 0.02 0.02 0.01 0.01 0.00 0.01 0.01 0.01 0.02 0.02 0.02 0.02 0.02 0.01 0.01 0.02
0.01 0.00 0.00 0.00 0.00 0.00 0.00 0.00 0.00 0.00 0.00 0.01 0.01 0.01 0.00 0.01 0.01 0.00 0.00 0.01 0.01 0.01 0.01 0.02 0.02 0.01 0.01 0.01 0.01 0.01 0.01 0.00 0.01 0.01 0.01 0.03 0.03 0.03 0.03 0.03 0.02 0.02 0.02
0.00 0.00 0.00 0.00 0.00 0.00 0.00 0.00 0.00 0.00 0.00 0.01 0.01 0.01 0.00 0.00 0.00 0.00 0.00 0.00 0.00 0.00 0.01 0.01 0.02 0.02 0.01 0.01 0.01 0.01 0.01 0.00 0.00 0.01 0.01 0.02 0.03 0.03 0.02 0.03 0.04 0.03 0.02
MSLP
1012.30 1012.46 1012.61 1012.72 1012.80 1012.84 1012.84 1012.80 1012.74 1012.66 1012.58 1012.49 1012.42 1012.34 1012.27 1012.19 1012.09 1011.97 1011.84 1011.69 1011.52 1011.37 1011.23 1011.11 1011.01 1010.94 1010.88 1010.83 1010.76 1010.67 1010.55 1010.40 1010.22 1010.02 1009.83 1009.64 1009.46 1009.28 1009.09 1008.87 1008.59 1008.23 1007.76
1012.37 1012.48 1012.57 1012.65 1012.68 1012.68 1012.63 1012.56 1012.45 1012.34 1012.24 1012.15 1012.08 1012.02 1011.98 1011.94 1011.88 1011.80 1011.69 1011.55 1011.38 1011.19 1011.01 1010.83 1010.67 1010.54 1010.43 1010.33 1010.24 1010.13 1010.01 1009.86 1009.69 1009.51 1009.31 1009.11 1008.90 1008.69 1008.44 1008.15 1007.79 1007.34 1006.79
1012.35 1012.42 1012.48 1012.52 1012.52 1012.48 1012.40 1012.30 1012.17 1012.04 1011.92 1011.83 1011.77 1011.74 1011.72 1011.71 1011.69 1011.64 1011.54 1011.40 1011.22 1011.00 1010.78 1010.55 1010.35 1010.17 1010.02 1009.90 1009.79 1009.68 1009.56 1009.43 1009.27 1009.08 1008.88 1008.65 1008.42 1008.15 1007.85 1007.50 1007.08 1006.57 1005.96
1012.29 1012.34 1012.39 1012.41 1012.39 1012.34 1012.25 1012.12 1011.98 1011.84 1011.72 1011.63 1011.58 1011.56 1011.57 1011.58 1011.57 1011.53 1011.43 1011.28 1011.08 1010.83 1010.57 1010.31 1010.07 1009.86 1009.69 1009.56 1009.45 1009.34 1009.23 1009.10 1008.94 1008.75 1008.53 1008.27 1007.99 1007.69 1007.34 1006.94 1006.48 1005.94 1005.32
1012.24 1012.30 1012.34 1012.37 1012.36 1012.31 1012.21 1012.09 1011.95 1011.80 1011.68 1011.59 1011.54 1011.52 1011.53 1011.53 1011.52 1011.47 1011.36 1011.19 1010.96 1010.69 1010.40 1010.11 1009.85 1009.62 1009.45 1009.31 1009.20 1009.10 1009.00 1008.86 1008.70 1008.48 1008.23 1007.94 1007.61 1007.26 1006.88 1006.46 1005.98 1005.45 1004.84
1012.23 1012.30 1012.37 1012.42 1012.42 1012.38 1012.30 1012.18 1012.04 1011.89 1011.76 1011.66 1011.60 1011.57 1011.55 1011.54 1011.51 1011.43 1011.29 1011.10 1010.84 1010.55 1010.24 1009.93 1009.66 1009.43 1009.25 1009.12 1009.02 1008.92 1008.82 1008.67 1008.48 1008.24 1007.94 1007.61 1007.24 1006.85 1006.44 1006.01 1005.55 1005.05 1004.49
1012.25 1012.36 1012.46 1012.53 1012.56 1012.53 1012.46 1012.34 1012.19 1012.04 1011.89 1011.77 1011.67 1011.61 1011.57 1011.52 1011.45 1011.34 1011.18 1010.96 1010.68 1010.37 1010.05 1009.74 1009.46 1009.24 1009.06 1008.94 1008.84 1008.75 1008.63 1008.47 1008.25 1007.97 1007.62 1007.24 1006.83 1006.41 1005.98 1005.56 1005.14 1004.69 1004.22
1012.31 1012.45 1012.57 1012.65 1012.69 1012.68 1012.60 1012.47 1012.31 1012.13 1011.96 1011.80 1011.67 1011.57 1011.49 1011.41 1011.30 1011.16 1010.97 1010.73 1010.44 1010.12 1009.79 1009.48 1009.21 1008.99 1008.83 1008.71 1008.61 1008.51 1008.38 1008.20 1007.94 1007.62 1007.24 1006.81 1006.36 1005.92 1005.49 1005.09 1004.71 1004.33 1003.94
1012.39 1012.53 1012.66 1012.75 1012.78 1012.75 1012.66 1012.51 1012.32 1012.11 1011.90 1011.70 1011.54 1011.40 1011.28 1011.16 1011.02 1010.86 1010.65 1010.40 1010.10 1009.77 1009.45 1009.14 1008.87 1008.66 1008.50 1008.37 1008.27 1008.16 1008.02 1007.81 1007.53 1007.18 1006.76 1006.31 1005.83 1005.38 1004.95 1004.57 1004.24 1003.93 1003.62
1012.46 1012.60 1012.71 1012.78 1012.79 1012.73 1012.61 1012.42 1012.19 1011.94 1011.70 1011.47 1011.26 1011.09 1010.94 1010.80 1010.65 1010.47 1010.25 1009.99 1009.69 1009.36 1009.03 1008.71 1008.44 1008.22 1008.05 1007.91 1007.80 1007.68 1007.52 1007.30 1007.00 1006.63 1006.20 1005.73 1005.25 1004.79 1004.37 1004.01 1003.71 1003.46 1003.23
1012.52 1012.64 1012.72 1012.75 1012.72 1012.62 1012.45 1012.22 1011.95 1011.67 1011.39 1011.13 1010.90 1010.72 1010.55 1010.40 1010.24 1010.06 1009.83 1009.56 1009.24 1008.90 1008.55 1008.22 1007.92 1007.67 1007.48 1007.32 1007.19 1007.05 1006.88 1006.66 1006.36 1005.99 1005.56 1005.09 1004.61 1004.16 1003.75 1003.41 1003.14 1002.92 1002.74
1012.56 1012.64 1012.69 1012.68 1012.60 1012.45 1012.23 1011.96 1011.66 1011.35 1011.04 1010.77 1010.54 1010.35 1010.18 1010.03 1009.87 1009.68 1009.44 1009.16 1008.82 1008.45 1008.06 1007.69 1007.34 1007.05 1006.81 1006.62 1006.45 1006.30 1006.12 1005.90 1005.62 1005.27 1004.86 1004.41 1003.95 1003.51 1003.12 1002.79 1002.52 1002.32 1002.17
1012.56 1012.62 1012.63 1012.58 1012.45 1012.26 1012.00 1011.70 1011.37 1011.04 1010.74 1010.46 1010.24 1010.05 1009.90 1009.75 1009.59 1009.39 1009.14 1008.82 1008.45 1008.03 1007.58 1007.14 1006.73 1006.37 1006.07 1005.82 1005.63 1005.45 1005.27 1005.06 1004.80 1004.48 1004.11 1003.69 1003.26 1002.84 1002.46 1002.13 1001.87 1001.67 1001.51
1012.53 1012.57 1012.55 1012.47 1012.31 1012.08 1011.80 1011.47 1011.13 1010.81 1010.50 1010.25 1010.04 1009.87 1009.72 1009.58 1009.42 1009.20 1008.92 1008.56 1008.14 1007.65 1007.13 1006.61 1006.12 1005.68 1005.30 1005.00 1004.75 1004.55 1004.36 1004.17 1003.94 1003.66 1003.33 1002.95 1002.56 1002.16 1001.78 1001.45 1001.18 1000.96 1000.79
1012.45 1012.48 1012.45 1012.35 1012.17 1011.92 1011.62 1011.29 1010.95 1010.63 1010.35 1010.11 1009.92 1009.77 1009.63 1009.49 1009.31 1009.07 1008.76 1008.35 1007.86 1007.30 1006.70 1006.10 1005.52 1004.99 1004.54 1004.18 1003.89 1003.66 1003.46 1003.27 1003.07 1002.83 1002.54 1002.20 1001.84 1001.46 1001.10 1000.76 1000.47 1000.24 1000.05
1012.30 1012.34 1012.31 1012.19 1012.00 1011.74 1011.44 1011.11 1010.79 1010.49 1010.22 1010.00 1009.83 1009.69 1009.55 1009.41 1009.21 1008.94 1008.58 1008.12 1007.57 1006.95 1006.28 1005.60 1004.95 1004.36 1003.85 1003.43 1003.09 1002.83 1002.63 1002.44 1002.25 1002.03 1001.77 1001.47 1001.13 1000.78 1000.42 1000.08 999.77 999.51 999.30
1012.07 1012.12 1012.09 1011.98 1011.79 1011.53 1011.23 1010.91 1010.60 1010.32 1010.07 1009.86 1009.70 1009.56 1009.41 1009.25 1009.03 1008.72 1008.33 1007.83 1007.23 1006.57 1005.86 1005.14 1004.44 1003.80 1003.25 1002.79 1002.42 1002.14 1001.91 1001.72 1001.53 1001.32 1001.08 1000.80 1000.47 1000.13 999.77 999.43 999.11 998.83 998.61
1011.75 1011.82 1011.80 1011.69 1011.50 1011.25 1010.96 1010.65 1010.35 1010.08 1009.84 1009.64 1009.47 1009.32 1009.16 1008.96 1008.71 1008.38 1007.96 1007.44 1006.83 1006.15 1005.42 1004.70 1004.00 1003.35 1002.78 1002.31 1001.93 1001.62 1001.38 1001.16 1000.96 1000.75 1000.50 1000.22 999.90 999.56 999.20 998.85 998.53 998.24 998.00
1011.35 1011.42 1011.41 1011.31 1011.13 1010.89 1010.62 1010.32 1010.04 1009.77 1009.53 1009.32 1009.14 1008.96 1008.77 1008.55 1008.26 1007.91 1007.47 1006.95 1006.34 1005.69 1004.99 1004.30 1003.63 1003.02 1002.47 1002.01 1001.63 1001.31 1001.04 1000.81 1000.58 1000.35 1000.08 999.78 999.46 999.11 998.75 998.39 998.06 997.77 997.53
1010.87 1010.96 1010.96 1010.87 1010.70 1010.48 1010.22 1009.95 1009.67 1009.41 1009.16 1008.94 1008.73 1008.51 1008.29 1008.02 1007.71 1007.34 1006.90 1006.39 1005.82 1005.21 1004.58 1003.96 1003.36 1002.81 1002.32 1001.89 1001.52 1001.20 1000.92 1000.66 1000.40 1000.13 999.83 999.51 999.16 998.80 998.43 998.08 997.75 997.45 997.21
1010.36 1010.46 1010.47 1010.40 1010.26 1010.07 1009.83 1009.57 1009.31 1009.05 1008.79 1008.54 1008.30 1008.04 1007.77 1007.46 1007.12 1006.73 1006.29 1005.80 1005.28 1004.74 1004.20 1003.67 1003.17 1002.70 1002.28 1001.90 1001.57 1001.26 1000.97 1000.68 1000.38 1000.07 999.74 999.38 999.01 998.64 998.26 997.91 997.58 997.28 997.03
1009.84 1009.95 1009.99 1009.95 1009.84 1009.68 1009.48 1009.24 1009.00 1008.74 1008.47 1008.20 1007.91 1007.61 1007.28 1006.93 1006.55 1006.13 1005.69 1005.24 1004.77 1004.31 1003.85 1003.43 1003.03 1002.66 1002.32 1002.01 1001.71 1001.42 1001.12 1000.81 1000.49 1000.13 999.76 999.38 998.98 998.59 998.21 997.85 997.52 997.23 996.97
1009.35 1009.48 1009.55 1009.54 1009.47 1009.35 1009.18 1008.98 1008.75 1008.50 1008.22 1007.92 1007.60 1007.25 1006.87 1006.47 1006.04 1005.60 1005.16 1004.72 1004.30 1003.90 1003.53 1003.20 1002.90 1002.62 1002.37 1002.12 1001.87 1001.60 1001.31 1000.99 1000.63 1000.25 999.84 999.43 999.01 998.60 998.21 997.85 997.53 997.24 996.98
1008.91 1009.07 1009.16 1009.19 1009.16 1009.08 1008.95 1008.78 1008.57 1008.32 1008.04 1007.72 1007.36 1006.96 1006.54 1006.08 1005.62 1005.15 1004.69 1004.26 1003.87 1003.52 1003.22 1002.97 1002.75 1002.56 1002.38 1002.19 1001.98 1001.74 1001.46 1001.12 1000.75 1000.34 999.91 999.47 999.03 998.61 998.21 997.85 997.53 997.24 996.98
1008.52 1008.70 1008.81 1008.87 1008.87 1008.82 1008.72 1008.58 1008.39 1008.15 1007.87 1007.54 1007.15 1006.72 1006.25 1005.76 1005.26 1004.76 1004.29 1003.86 1003.49 1003.17 1002.92 1002.72 1002.57 1002.44 1002.32 1002.19 1002.02 1001.80 1001.53 1001.19 1000.81 1000.38 999.92 999.45 998.99 998.56 998.15 997.78 997.45 997.16 996.91
1008.18 1008.36 1008.48 1008.55 1008.56 1008.53 1008.45 1008.32 1008.15 1007.92 1007.65 1007.31 1006.92 1006.47 1005.98 1005.47 1004.94 1004.43 1003.94 1003.51 1003.15 1002.86 1002.64 1002.48 1002.38 1002.30 1002.23 1002.13 1001.99 1001.80 1001.53 1001.20 1000.80 1000.36 999.87 999.38 998.89 998.43 998.00 997.62 997.28 996.99 996.73
Thickness
5662 5658 5655 5652 5649 5646 5643 5640 5638 5635 5632 5629 5627 5625 5623 5622 5619 5617 5615 5613 5610 5608 5606 5605 5603 5603 5604 5604 5604 5604 5604 5605 5605 5608 5609 5609 5608 5609 5611 5612 5614 5616 5618
5657 5654 5650 5647 5644 5642 5639 5636 5633 5630 5627 5625 5623 5621 5619 5617 5614 5612 5610 5608 5606 5603 5601 5600 5599 5600 5599 5599 5599 5599 5599 5600 5600 5600 5602 5603 5603 5604 5605 5606 5609 5611 5612
5653 5650 5646 5643 5640 5637 5634 5632 5629 5626 5624 5622 5619 5616 5614 5612 5610 5608 5607 5605 5602 5600 5598 5597 5596 5595 5595 5595 5594 5595 5596 5597 5597 5596 5597 5598 5598 5600 5600 5601 5603 5603 5606
5648 5646 5642 5639 5636 5634 5631 5629 5626 5623 5621 5618 5615 5613 5610 5609 5606 5604 5603 5601 5599 5597 5596 5594 5593 5592 5591 5591 5591 5591 5591 5592 5592 5592 5593 5594 5594 5595 5595 5596 5596 5598 5599
5644 5642 5639 5637 5634 5631 5628 5626 5623 5620 5618 5615 5612 5610 5607 5605 5603 5599 5598 5598 5597 5595 5594 5593 5592 5588 5586 5585 5586 5587 5587 5587 5588 5589 5589 5590 5591 5590 5590 5591 5590 5591 5593
5641 5639 5637 5634 5631 5628 5626 5622 5619 5617 5614 5612 5610 5607 5605 5603 5597 5593 5591 5594 5594 5593 5592 5591 5590 5588 5584 5581 5580 5579 5579 5581 5583 5582 5585 5585 5584 5585 5584 5584 5584 5585 5586
5638 5636 5634 5631 5629 5626 5624 5621 5617 5614 5611 5609 5607 5605 5602 5598 5593 5590 5588 5589 5592 5591 5590 5588 5588 5587 5583 5582 5580 5577 5577 5575 5574 5576 5579 5579 5580 5581 5579 5579 5579 5580 5580
5636 5634 5632 5629 5627 5624 5621 5618 5615 5612 5609 5607 5605 5603 5600 5597 5592 5588 5586 5588 5590 5589 5588 5586 5584 5582 5580 5576 5577 5578 5578 5578 5575 5574 5574 5575 5576 5575 5574 5574 5575 5575 5576
5635 5633 5631 5628 5625 5621 5618 5615 5613 5610 5607 5605 5604 5602 5599 5596 5591 5587 5583 5589 5590 5589 5587 5585 5582 5579 5573 5570 5572 5574 5574 5574 5573 5571 5569 5569 5569 5568 5568 5569 5572 5574 5575
5634 5632 5630 5626 5623 5620 5617 5614 5612 5609 5607 5605 5603 5601 5598 5596 5591 5586 5582 5587 5588 5587 5586 5583 5577 5573 5568 5565 5567 5568 5569 5570 5570 5571 5568 5568 5569 5568 5565 5566 5569 5570 5572
5633 5630 5627 5624 5622 5619 5616 5614 5611 5609 5607 5604 5602 5600 5598 5595 5591 5586 5581 5582 5584 5584 5584 5582 5579 5570 5565 5562 5559 5562 5562 5561 5563 5565 5568 5569 5571 5570 5569 5567 5566 5566 5568
5631 5628 5625 5622 5621 5619 5615 5613 5610 5608 5606 5604 5602 5600 5600 5597 5591 5586 5581 5577 5575 5577 5578 5579 5575 5567 5562 5559 5559 5558 5556 5554 5559 5563 5565 5567 5568 5568 5568 5566 5564 5564 5564
5629 5626 5624 5621 5618 5616 5614 5612 5610 5608 5607 5606 5604 5601 5600 5598 5593 5586 5581 5577 5574 5573 5575 5571 5567 5563 5561 5561 5559 5556 5554 5557 5558 5559 5560 5561 5563 5563 5562 5562 5561 5560 5560
5627 5625 5623 5620 5617 5615 5613 5613 5611 5609 5607 5605 5603 5600 5598 5596 5593 5587 5583 5580 5576 5574 5573 5571 5566 5563 5561 5558 5558 5559 5558 5558 5556 5555 5556 5557 5557 5556 5556 5557 5557 5557 5557
5627 5625 5623 5621 5618 5614 5614 5612 5610 5607 5603 5599 5599 5597 5594 5591 5584 5574 5572 5574 5571 5570 5566 5569 5570 5569 5566 5564 5562 5559 5557 5555 5553 5552 5551 5551 5551 5551 5551 5551 5551 5552 5552
5626 5624 5624 5622 5619 5618 5616 5614 5608 5604 5600 5596 5591 5587 5588 5581 5576 5572 5568 5565 5563 5560 5561 5567 5566 5563 5561 5559 5556 5554 5552 5549 5547 5546 5546 5545 5545 5545 5545 5546 5546 5545 5546
5626 5625 5624 5623 5622 5620 5618 5616 5612 5607 5601 5596 5592 5587 5582 5578 5574 5570 5567 5565 5562 5559 5562 5563 5560 5557 5554 5552 5549 5547 5545 5543 5540 5538 5538 5538 5538 5538 5538 5539 5539 5539 5540
5627 5625 5624 5624 5623 5622 5620 5618 5615 5612 5608 5604 5595 5588 5583 5578 5574 5570 5567 5565 5568 5563 5562 5559 5555 5551 5548 5544 5542 5539 5537 5535 5532 5530 5530 5529 5529 5530 5530 5531 5532 5531 5531
5628 5628 5626 5625 5624 5623 5620 5618 5616 5612 5609 5606 5601 5594 5586 5581 5576 5572 5568 5570 5569 5564 5559 5555 5550 5546 5541 5538 5534 5531 5528 5526 5523 5520 5519 5519 5519 5519 5521 5522 5523 5522 5522
5629 5626 5624 5625 5625 5623 5620 5618 5615 5612 5609 5605 5600 5596 5590 5585 5581 5576 5572 5569 5564 5559 5554 5549 5544 5539 5535 5531 5527 5524 5521 5517 5514 5512 5511 5510 5510 5510 5510 5511 5513 5514 5516
5634 5630 5623 5625 5625 5623 5620 5617 5614 5611 5608 5604 5600 5594 5582 5583 5579 5575 5571 5566 5560 5554 5549 5543 5539 5535 5530 5525 5521 5516 5513 5510 5506 5504 5502 5502 5502 5502 5502 5504 5505 5506 5507
5635 5633 5630 5628 5625 5622 5619 5617 5614 5610 5607 5602 5599 5594 5583 5582 5579 5574 5568 5562 5556 5551 5545 5539 5535 5530 5524 5518 5513 5509 5505 5501 5497 5494 5493 5493 5493 5494 5495 5496 5497 5498 5498
5636 5634 5630 5628 5625 5620 5618 5618 5615 5610 5606 5601 5598 5593 5587 5582 5577 5571 5565 5559 5553 5547 5541 5535 5529 5524 5517 5511 5506 5501 5496 5490 5486 5484 5484 5485 5486 5487 5487 5488 5488 5488 5490
5637 5634 5631 5628 5625 5623 5621 5618 5615 5611 5606 5601 5596 5591 5586 5579 5574 5567 5562 5556 5549 5543 5537 5531 5524 5517 5510 5505 5500 5494 5485 5479 5475 5477 5476 5477 5479 5480 5479 5479 5480 5481 5481
5638 5635 5632 5629 5626 5624 5621 5618 5615 5610 5605 5600 5595 5589 5584 5578 5572 5566 5559 5553 5546 5539 5533 5526 5519 5512 5505 5499 5492 5485 5476 5472 5468 5467 5469 5472 5473 5472 5471 5471 5472 5472 5473
5640 5636 5633 5630 5628 5625 5622 5618 5614 5609 5605 5599 5594 5588 5582 5576 5570 5563 5556 5549 5543 5537 5529 5522 5514 5508 5501 5495 5486 5478 5473 5469 5465 5463 5462 5466 5467 5466 5465 5465 5466 5466 5466